Time,TemperatureF,DewpointF,PressureIn,WindDirection,WindDirectionDegrees,WindSpeedMPH,WindSpeedGustMPH,Humidity,HourlyPrecipIn,Conditions,Clouds,dailyrainin,SoftwareType,DateUTC
2013-01-11 00:16:00,41.0,25.0,30.52,ENE,72,1.0,3.0,53,0.00,,,0.00,weatherlink.com 1.10,2013-01-11 05:16:00,
2013-01-11 00:31:00,40.9,25.0,30.52,East,97,1.0,4.0,54,0.00,,,0.00,weatherlink.com 1.10,2013-01-11 05:31:00,
2013-01-11 00:46:00,40.7,25.0,30.52,ENE,58,4.0,6.0,55,0.00,,,0.00,weatherlink.com 1.10,2013-01-11 05:46:00,
2013-01-11 01:01:00,40.7,25.0,30.51,NE,52,3.0,6.0,54,0.00,,,0.00,weatherlink.com 1.10,2013-01-11 06:01:00,
2013-01-11 01:16:00,40.5,25.0,30.52,NE,50,1.0,5.0,54,0.00,,,0.00,weatherlink.com 1.10,2013-01-11 06:16:00,
2013-01-11 01:32:00,40.4,25.0,30.51,East,84,2.0,5.0,54,0.00,,,0.00,weatherlink.com 1.10,2013-01-11 06:32:00,
2013-01-11 01:47:00,40.2,25.0,30.50,ENE,58,4.0,6.0,54,0.00,,,0.00,weatherlink.com 1.10,2013-01-11 06:47:00,
2013-01-11 02:02:00,40.1,25.0,30.50,NE,54,2.0,6.0,55,0.00,,,0.00,weatherlink.com 1.10,2013-01-11 07:02:00,
2013-01-11 02:17:00,39.9,25.0,30.50,East,87,2.0,4.0,55,0.00,,,0.00,weatherlink.com 1.10,2013-01-11 07:17:00,
2013-01-11 02:32:00,39.7,25.0,30.49,NE,40,4.0,4.0,56,0.00,,,0.00,weatherlink.com 1.10,2013-01-11 07:32:00,
2013-01-11 02:47:00,39.5,25.0,30.49,ENE,60,3.0,5.0,56,0.00,,,0.00,weatherlink.com 1.10,2013-01-11 07:47:00,
2013-01-11 03:02:00,39.3,25.0,30.50,NE,56,2.0,4.0,56,0.00,,,0.00,weatherlink.com 1.10,2013-01-11 08:02:00,
2013-01-11 03:17:00,39.1,25.0,30.48,ENE,72,3.0,6.0,57,0.00,,,0.00,weatherlink.com 1.10,2013-01-11 08:17:00,
2013-01-11 03:32:00,39.0,25.0,30.47,ENE,71,2.0,6.0,58,0.00,,,0.00,weatherlink.com 1.10,2013-01-11 08:32:00,
2013-01-11 03:47:00,38.7,25.0,30.48,NE,56,0.0,4.0,58,0.00,,,0.00,weatherlink.com 1.10,2013-01-11 08:47:00,
2013-01-11 04:02:00,38.7,25.0,30.46,ENE,65,2.0,6.0,58,0.00,,,0.00,weatherlink.com 1.10,2013-01-11 09:02:00,
2013-01-11 04:17:00,38.7,25.0,30.45,ENE,58,2.0,5.0,58,0.00,,,0.00,weatherlink.com 1.10,2013-01-11 09:17:00,
2013-01-11 04:32:00,38.8,25.0,30.44,ENE,65,2.0,5.0,59,0.00,,,0.00,weatherlink.com 1.10,2013-01-11 09:32:00,
2013-01-11 04:47:00,38.8,26.0,30.44,ENE,75,2.0,3.0,61,0.00,,,0.00,weatherlink.com 1.10,2013-01-11 09:47:00,
2013-01-11 05:02:00,38.9,27.0,30.45,East,98,2.0,4.0,62,0.00,,,0.00,weatherlink.com 1.10,2013-01-11 10:02:00,
2013-01-11 05:17:00,38.8,27.0,30.45,NE,56,3.0,6.0,62,0.00,,,0.00,weatherlink.com 1.10,2013-01-11 10:17:00,
2013-01-11 05:32:00,38.9,27.0,30.45,NE,56,0.0,3.0,62,0.00,,,0.00,weatherlink.com 1.10,2013-01-11 10:32:00,
2013-01-11 05:47:00,39.0,27.0,30.45,ESE,122,1.0,2.0,63,0.00,,,0.00,weatherlink.com 1.10,2013-01-11 10:47:00,
2013-01-11 06:02:00,38.9,27.0,30.45,ENE,67,1.0,2.0,62,0.00,,,0.00,weatherlink.com 1.10,2013-01-11 11:02:00,
2013-01-11 06:17:00,39.0,26.0,30.46,ENE,61,0.0,3.0,61,0.00,,,0.00,weatherlink.com 1.10,2013-01-11 11:17:00,
2013-01-11 06:32:00,39.0,26.0,30.46,ESE,109,1.0,2.0,61,0.00,,,0.00,weatherlink.com 1.10,2013-01-11 11:32:00,
2013-01-11 06:47:00,39.2,27.0,30.46,ENE,75,0.0,2.0,61,0.00,,,0.00,weatherlink.com 1.10,2013-01-11 11:47:00,
2013-01-11 07:02:00,39.3,26.0,30.46,East,86,0.0,4.0,59,0.00,,,0.00,weatherlink.com 1.10,2013-01-11 12:02:00,
2013-01-11 07:17:00,39.2,26.0,30.46,NE,47,0.0,4.0,59,0.00,,,0.00,weatherlink.com 1.10,2013-01-11 12:17:00,
2013-01-11 07:32:00,39.3,26.0,30.46,ESE,103,3.0,5.0,59,0.00,,,0.00,weatherlink.com 1.10,2013-01-11 12:32:00,
2013-01-11 07:47:00,39.3,26.0,30.47,East,91,1.0,4.0,59,0.00,,,0.00,weatherlink.com 1.10,2013-01-11 12:47:00,
2013-01-11 08:02:00,39.5,26.0,30.46,NE,46,2.0,3.0,60,0.00,,,0.00,weatherlink.com 1.10,2013-01-11 13:02:00,
2013-01-11 08:17:00,39.4,26.0,30.46,NE,56,0.0,5.0,60,0.00,,,0.00,weatherlink.com 1.10,2013-01-11 13:17:00,
2013-01-11 08:32:00,39.5,27.0,30.45,SE,129,0.0,5.0,62,0.00,,,0.00,weatherlink.com 1.10,2013-01-11 13:32:00,
2013-01-11 08:47:00,39.9,29.0,30.44,NE,34,0.0,5.0,65,0.00,,,0.00,weatherlink.com 1.10,2013-01-11 13:47:00,
2013-01-11 09:02:00,40.2,30.0,30.45,East,97,0.0,4.0,66,0.00,,,0.00,weatherlink.com 1.10,2013-01-11 14:02:00,
2013-01-11 09:17:00,40.7,30.0,30.45,East,90,1.0,6.0,66,0.00,,,0.00,weatherlink.com 1.10,2013-01-11 14:17:00,
2013-01-11 09:32:00,41.1,30.0,30.45,East,86,1.0,4.0,66,0.00,,,0.00,weatherlink.com 1.10,2013-01-11 14:32:00,
2013-01-11 09:47:00,41.3,31.0,30.45,ESE,102,4.0,5.0,66,0.00,,,0.00,weatherlink.com 1.10,2013-01-11 14:47:00,
2013-01-11 10:02:00,41.4,31.0,30.43,ESE,103,0.0,4.0,66,0.00,,,0.00,weatherlink.com 1.10,2013-01-11 15:02:00,
2013-01-11 10:17:00,41.9,31.0,30.43,ENE,65,1.0,4.0,66,0.00,,,0.00,weatherlink.com 1.10,2013-01-11 15:17:00,
2013-01-11 10:32:00,42.4,32.0,30.43,ENE,77,0.0,4.0,66,0.00,,,0.00,weatherlink.com 1.10,2013-01-11 15:32:00,
2013-01-11 10:47:00,42.8,32.0,30.41,SSW,198,2.0,5.0,66,0.00,,,0.00,weatherlink.com 1.10,2013-01-11 15:47:00,
2013-01-11 11:02:00,42.9,33.0,30.40,ESE,102,2.0,7.0,67,0.00,,,0.00,weatherlink.com 1.10,2013-01-11 16:02:00,
2013-01-11 11:17:00,42.9,33.0,30.39,East,79,2.0,5.0,68,0.00,,,0.00,weatherlink.com 1.10,2013-01-11 16:17:00,
2013-01-11 11:33:00,43.3,34.0,30.38,NE,56,3.0,6.0,69,0.00,,,0.00,weatherlink.com 1.10,2013-01-11 16:33:00,
2013-01-11 11:48:00,43.3,34.0,30.36,East,84,0.0,6.0,70,0.00,,,0.00,weatherlink.com 1.10,2013-01-11 16:48:00,
2013-01-11 12:03:00,43.9,35.0,30.34,ENE,77,3.0,5.0,70,0.00,,,0.00,weatherlink.com 1.10,2013-01-11 17:03:00,
2013-01-11 12:18:00,44.2,35.0,30.34,ENE,71,1.0,6.0,69,0.00,,,0.00,weatherlink.com 1.10,2013-01-11 17:18:00,
2013-01-11 12:33:00,44.3,35.0,30.33,NE,47,4.0,5.0,70,0.00,,,0.00,weatherlink.com 1.10,2013-01-11 17:33:00,
2013-01-11 12:48:00,45.1,36.0,30.33,ESE,113,0.0,2.0,71,0.00,,,0.00,weatherlink.com 1.10,2013-01-11 17:48:00,
2013-01-11 13:03:00,45.0,36.0,30.32,WSW,245,0.0,3.0,72,0.00,,,0.00,weatherlink.com 1.10,2013-01-11 18:03:00,
2013-01-11 13:18:00,45.0,37.0,30.32,ENE,78,1.0,6.0,73,0.00,,,0.00,weatherlink.com 1.10,2013-01-11 18:18:00,
2013-01-11 13:33:00,45.1,37.0,30.32,SE,127,2.0,6.0,74,0.00,,,0.00,weatherlink.com 1.10,2013-01-11 18:33:00,
2013-01-11 13:48:00,45.2,37.0,30.31,East,94,1.0,5.0,74,0.00,,,0.00,weatherlink.com 1.10,2013-01-11 18:48:00,
2013-01-11 14:03:00,45.3,37.0,30.30,SE,139,3.0,5.0,74,0.00,,,0.00,weatherlink.com 1.10,2013-01-11 19:03:00,
2013-01-11 14:18:00,45.8,38.0,30.30,ESE,117,3.0,4.0,73,0.00,,,0.00,weatherlink.com 1.10,2013-01-11 19:18:00,
2013-01-11 14:33:00,45.9,38.0,30.30,ENE,74,1.0,4.0,74,0.00,,,0.00,weatherlink.com 1.10,2013-01-11 19:33:00,
2013-01-11 14:48:00,46.1,38.0,30.29,East,82,1.0,3.0,74,0.00,,,0.00,weatherlink.com 1.10,2013-01-11 19:48:00,
2013-01-11 15:03:00,45.0,37.0,30.28,East,85,0.0,6.0,74,0.00,,,0.00,weatherlink.com 1.10,2013-01-11 20:03:00,
2013-01-11 15:18:00,44.4,38.0,30.28,ENE,65,2.0,5.0,77,0.00,,,0.00,weatherlink.com 1.10,2013-01-11 20:18:00,
2013-01-11 15:33:00,43.6,38.0,30.27,NE,51,1.0,4.0,80,0.00,,,0.00,weatherlink.com 1.10,2013-01-11 20:33:00,
2013-01-11 15:48:00,43.6,38.0,30.25,NE,50,4.0,4.0,82,0.00,,,0.00,weatherlink.com 1.10,2013-01-11 20:48:00,
2013-01-11 16:03:00,43.7,39.0,30.25,ENE,60,2.0,4.0,82,0.00,,,0.00,weatherlink.com 1.10,2013-01-11 21:03:00,
2013-01-11 16:18:00,43.6,39.0,30.25,NE,56,2.0,3.0,84,0.01,,,0.01,weatherlink.com 1.10,2013-01-11 21:18:00,
2013-01-11 16:33:00,43.9,40.0,30.24,ENE,71,2.0,4.0,85,0.01,,,0.01,weatherlink.com 1.10,2013-01-11 21:33:00,
2013-01-11 16:48:00,43.8,40.0,30.24,East,92,0.0,3.0,85,0.01,,,0.01,weatherlink.com 1.10,2013-01-11 21:48:00,
2013-01-11 17:04:00,44.1,41.0,30.24,ENE,58,1.0,1.0,87,0.02,,,0.02,weatherlink.com 1.10,2013-01-11 22:04:00,
2013-01-11 17:19:00,45.8,43.0,30.22,East,86,1.0,3.0,91,0.01,,,0.02,weatherlink.com 1.10,2013-01-11 22:19:00,
2013-01-11 17:34:00,46.1,44.0,30.22,East,84,1.0,5.0,91,0.02,,,0.03,weatherlink.com 1.10,2013-01-11 22:34:00,
2013-01-11 17:49:00,46.0,44.0,30.21,ENE,71,1.0,4.0,92,0.04,,,0.05,weatherlink.com 1.10,2013-01-11 22:49:00,
2013-01-11 18:04:00,46.1,44.0,30.20,SE,131,1.0,5.0,93,0.06,,,0.08,weatherlink.com 1.10,2013-01-11 23:04:00,
2013-01-11 18:19:00,46.4,45.0,30.19,SE,124,2.0,4.0,94,0.07,,,0.09,weatherlink.com 1.10,2013-01-11 23:19:00,
2013-01-11 18:34:00,46.6,45.0,30.18,East,96,0.0,8.0,94,0.07,,,0.10,weatherlink.com 1.10,2013-01-11 23:34:00,
2013-01-11 18:49:00,46.6,45.0,30.17,SSE,152,0.0,5.0,94,0.07,,,0.12,weatherlink.com 1.10,2013-01-11 23:49:00,
2013-01-11 19:04:00,46.6,45.0,30.16,ENE,70,1.0,4.0,94,0.06,,,0.14,weatherlink.com 1.10,2013-01-12 00:04:00,
2013-01-11 19:19:00,46.2,44.0,30.15,ESE,105,3.0,6.0,93,0.09,,,0.18,weatherlink.com 1.10,2013-01-12 00:19:00,
2013-01-11 19:34:00,46.3,45.0,30.18,WSW,255,0.0,2.0,94,0.14,,,0.24,weatherlink.com 1.10,2013-01-12 00:34:00,
2013-01-11 19:49:00,46.3,45.0,30.17,West,273,0.0,1.0,94,0.20,,,0.32,weatherlink.com 1.10,2013-01-12 00:49:00,
2013-01-11 20:04:00,46.4,45.0,30.19,WNW,283,0.0,3.0,94,0.20,,,0.34,weatherlink.com 1.10,2013-01-12 01:04:00,
2013-01-11 20:19:00,46.4,45.0,30.18,WSW,239,0.0,0.0,94,0.17,,,0.35,weatherlink.com 1.10,2013-01-12 01:19:00,
2013-01-11 20:34:00,46.5,45.0,30.17,SE,124,1.0,1.0,95,0.12,,,0.36,weatherlink.com 1.10,2013-01-12 01:34:00,
2013-01-11 20:49:00,46.5,45.0,30.16,ENE,68,1.0,2.0,95,0.05,,,0.37,weatherlink.com 1.10,2013-01-12 01:49:00,
2013-01-11 21:04:00,46.6,45.0,30.15,ESE,112,2.0,3.0,95,0.06,,,0.40,weatherlink.com 1.10,2013-01-12 02:04:00,
2013-01-11 21:19:00,46.6,45.0,30.14,East,90,1.0,2.0,95,0.07,,,0.42,weatherlink.com 1.10,2013-01-12 02:19:00,
2013-01-11 21:34:00,46.5,45.0,30.14,East,85,0.0,5.0,95,0.08,,,0.44,weatherlink.com 1.10,2013-01-12 02:34:00,
2013-01-11 21:49:00,46.3,45.0,30.13,East,101,1.0,5.0,95,0.10,,,0.47,weatherlink.com 1.10,2013-01-12 02:49:00,
2013-01-11 22:04:00,46.1,45.0,30.13,NE,51,1.0,4.0,95,0.09,,,0.49,weatherlink.com 1.10,2013-01-12 03:04:00,
2013-01-11 22:19:00,46.2,45.0,30.12,NE,56,0.0,5.0,95,0.09,,,0.51,weatherlink.com 1.10,2013-01-12 03:19:00,
2013-01-11 22:34:00,46.3,45.0,30.11,NE,53,2.0,5.0,95,0.08,,,0.52,weatherlink.com 1.10,2013-01-12 03:34:00,
2013-01-11 22:49:00,46.4,45.0,30.10,East,84,0.0,3.0,96,0.05,,,0.52,weatherlink.com 1.10,2013-01-12 03:49:00,
2013-01-11 23:05:00,46.5,46.0,30.10,NE,48,1.0,3.0,96,0.03,,,0.52,weatherlink.com 1.10,2013-01-12 04:05:00,
2013-01-11 23:19:00,46.6,45.0,30.09,NE,51,1.0,4.0,95,0.02,,,0.53,weatherlink.com 1.10,2013-01-12 04:19:00,
2013-01-11 23:34:00,46.6,46.0,30.08,NE,51,0.0,2.0,96,0.03,,,0.55,weatherlink.com 1.10,2013-01-12 04:34:00,
2013-01-11 23:49:00,46.4,45.0,30.08,ENE,74,1.0,5.0,96,0.03,,,0.55,weatherlink.com 1.10,2013-01-12 04:49:00,